STARLINK-30419

decayed
NORAD ID: 57845 Int'l Des: 2023-141 Owner: SPXS Country: US Constellation: starlink
LEOCIRCULAR
Group

About STARLINK-30419

Description loading...

Altitude History

Altitude vs Time

uPlot chart will show altitude changes over time

Two-Line Element Set

1 57845U 23141F 25057.58612353 .48244651 12339-4 52834-2 0 9992
2 57845 53.1458 191.8732 0005893 336.2966 127.7560 16.36466080 83322
Epoch: Feb 26, 2025 • Age: 4819 hours

Current Status

Position data unavailable
Launch Date Sep 12, 2023
Age 2 years
Decay Date Feb 26, 2025
Type internet

Technical Details

Classification Payload
Mass 730.00 kg
Dry Mass 700.00 kg
Total Mass 730.00 kg
Length 0.30 m
Diameter 4.10 m
Span 29.00 m
Shape Box + pan
Manufacturer SPXS
Bus Type Starlink V2M
Phase Status Reentered
Owner/State SPXS/US

Large Constellations

Loading constellations...